User: anonymous   Login
Location: Stara Lesna
(49.1528°N, 20.2911°E)
Time: 00:51:12
(UTC+01:00)
Language:

STARLINK-59 - Orbit

View from above orbital plane
View from above orbital plane
View from above satellite
View from above satellite

Ground track
Ground track

The orbit data is extracted from the following two-line orbital elements,

1 44271U 19029AN  19317.68378003 +.00000483 +00000-0 +52458-4 0  9998
2 44271 052.9990 112.4545 0002299 110.9736 249.1498 15.05504760025529
Epoch (UTC): 13 November 2019 16:24:38
Eccentricity: 0.0002299
inclination: 52.9990°
perigee height: 548 km
apogee height: 551 km
right ascension of ascending node: 112.4545°
argument of perigee: 110.9736°
revolutions per day: 15.05504760
mean anomaly at epoch: 249.1498°
orbit number at epoch: 2552

The dashed part of the orbit path shows where the satellite is in the earth's shadow,  

DLR